Tracking 19574 objects as of 15-Feb-2019
HD Live streaming from Space Station
objects crossing your sky now

COSMOS 2209

Track COSMOS 2209 now!
COSMOS 2209 is classified as:


NORAD ID: 22112
Int'l Code: 1992-059A
Perigee: 35,750.3 km
Apogee: 35,859.3 km
Inclination: 15.0 °
Period: 1,436.7 minutes
Semi major axis: 42175 km
RCS: 5.0119 m2 (large)
Launch date: September 10, 1992
Source: Commonwealth of Independent States (former USSR) (CIS)
Launch site: TYURATAM MISSILE AND SPACE COMPLEX (TTMTR)
aabbcc
Your satellite tracking list
Your tracking list is empty




NASA's NSSDC Master Catalog

Two Line Element Set (TLE):
1 22112U 92059A   19045.76795740  .00000077  00000-0  00000+0 0  9990
2 22112  15.0440   4.9719 0012914 277.5906 329.5639  1.00232416 96783
Source of the keplerian elements: AFSPC